Location: Ferintosh
(52.7647°N, 112.9692°W)
Time: 15:03:10
(UTC+00:00)

Transit 2A Rocket - Pass Details

Date: 21 May 2024
Orbit: 583 x 910 km, 66.7° (Epoch: 22 June)

Event Time Altitude Azimuth Distance (km) Brightness Sun altitude
Rises 10:51:46 0° 177° (S) 2,973 7.7 -4.7°
Reaches altitude 10° 10:54:20 10° 163° (SSE) 2,118 7.1 -4.4°
Maximum altitude 10:58:10 24° 110° (ESE) 1,469 6.9 -4.0°
Drops below altitude 10° 11:02:17 10° 58° (ENE) 2,303 9.4 -3.5°
Sets 11:05:11 0° 45° (NE) 3,298 11.4 -3.2°
